Regional Weather Roundup
Issued by NWS

Home | Current Version | Previous Version | Text Only | Print | Product List | Glossary Off
Versions: 1 2 3 4 5 6 7 8 9 10 11 12 13 14 15 16 17 18 19 20 21 22 23 24 25 26 27 28 29 30 31 32 33 34 35 36 37 38 39 40 41 42 43 44 45 46 47 48 49 50

000
ASUS45 KABQ 121501
RWRNM
NEW MEXICO REGIONAL WEATHER ROUNDUP
NATIONAL WEATHER SERVICE ALBUQUERQUE NM
800 AM MST FRI FEB 12 2016

NOTE: "FAIR" MEANS FEW OR NO CLOUDS BELOW 12,000 FEET AGL WITH NO
       SIGNIFICANT WEATHER OR OBSTRUCTIONS TO VISION.

      THIS PRODUCT IS RELEASED AS TWO VERSIONS.  ONE VERSION NEAR
      THE TOP OF THE HOUR CONTAINING PRELIMINARY DATA FROM ALBUQUERQUE
      AND OTHER STATIONS.  A FINAL VERSION WITH ADDITIONAL DATA IS
      ISSUED ABOUT 10 MINUTES AFTER THE HOUR.

NMZ501-503-504-510>518-121600-
NORTHWEST PLATEAU/NORTHCENTRAL MOUNTAINS

CITY           SKY/WX    TMP DP  RH WIND       PRES   REMARKS
FARMINGTON     CLOUDY    28  23  81 E7        30.43R WCI  21
SANTA FE       CLOUDY    34  20  56 N13       30.40R WCI  25
TAOS           CLOUDY    28  21  74 CALM      30.46R

$$
NMZ402-403-502-505>509-121600-
WESTCENTRAL MOUNTAINS/SOUTHWEST MOUNTAINS

CITY           SKY/WX    TMP DP  RH WIND       PRES   REMARKS
GALLUP         CLEAR     23  19  85 CALM      30.45R
GRANTS         SUNNY     26  16  65 NW12      30.46S WCI  15
SILVER CITY      N/A     41  14  33 NW7       30.38R

$$
NMZ407-409-411-412-121600-
SOUTHERN DESERTS

CITY           SKY/WX    TMP DP  RH WIND       PRES   REMARKS
DEMING         MOSUNNY   37  15  40 W3        30.34R
HOLLOMAN AFB   CLOUDY    37  11  34 E3        30.33R
ALAMOGORDO     CLOUDY    39  12  33 SE5       30.34R
T OR C         SUNNY     43  14  31 N3        30.37R

$$
NMZ519>523-121600-
CENTRAL VALLEYS/CENTRAL HIGHLANDS

CITY           SKY/WX    TMP DP  RH WIND       PRES   REMARKS
ALBUQUERQUE    CLOUDY    35  20  54 NE3       30.41R
DOUBLE EAGLE   SUNNY     34  18  51 W6        30.42R WCI  29
MORIARTY ARPT  FAIR      32  23  69 N3        30.43R
CLINES CORNERS CLOUDY    42  16  34 CALM      30.39R
BELEN          FAIR      35  16  45 CALM      30.40R
SOCORRO        NOT AVBL

$$
NMZ524>526-539-540-121600-
SOUTHCENTRAL MOUNTAINS

CITY           SKY/WX    TMP DP  RH WIND       PRES   REMARKS
RUIDOSO          N/A     48   3  15 NW8       30.40R

$$
NMZ527>531-121600-
NORTHEAST HIGHLANDS/NORTHEAST PLAINS

CITY           SKY/WX    TMP DP  RH WIND       PRES   REMARKS
LAS VEGAS      CLOUDY    40  18  41 CALM      30.41R
RATON          CLOUDY    29  20  69 NE8       30.38R WCI  21
CLAYTON        CLOUDY    47  26  44 W3        30.36R

$$
NMZ532>537-121600-
EASTCENTRAL PLAINS

CITY           SKY/WX    TMP DP  RH WIND       PRES   REMARKS
TUCUMCARI      CLOUDY    45  25  45 N8        30.33R
CANNON AFB     CLOUDY    41  25  53 N20       30.30R
CLOVIS AIRPORT CLOUDY    39  25  56 N16G22    30.32R WCI  30

$$
NMZ028-029-538-121600-
SOUTHEAST PLAINS

CITY           SKY/WX    TMP DP  RH WIND       PRES   REMARKS
ROSWELL        CLOUDY    43  20  39 N6        30.31R
ARTESIA        CLOUDY    43  21  42 N8        30.33R
CARLSBAD       CLOUDY    47  21  35 NW15      30.31R
HOBBS          SUNNY     45  25  45 CALM      30.31R


$$



USA.gov is the U.S. government's official web portal to all federal, state and local government web resources and services.